Regional Weather Roundup
Issued by NWS

Home | Current Version | Previous Version | Graphics & Text | Print | Product List | Glossary On
Versions: 1 2 3 4 5 6 7 8 9 10 11 12 13 14 15 16 17 18 19 20 21 22 23 24 25 26 27 28 29 30 31 32 33 34 35 36 37 38 39 40 41 42 43 44 45 46 47 48 49 50
000
ASUS45 KPSR 222200
RWRAZ

PRELIMINARY ARIZONA REGIONAL HOURLY WEATHER ROUNDUP
NATIONAL WEATHER SERVICE PHOENIX AZ
300 PM MST MON DEC 22 2014

NOTE: FAIR INDICATES FEW OR NO CLOUDS BELOW 12,000 FEET WITH NO
SIGNIFICANT WEATHER AND/OR OBSTRUCTIONS TO VISIBILITY.

AZZ001>003-036-222300-
NORTHWEST ARIZONA

CITY           SKY/WX    TMP DP  RH WIND       PRES   REMARKS
KINGMAN        SUNNY     66  36  32 N9        30.00S
$$

AZZ004>008-015-016-018-222300-
NORTH CENTRAL ARIZONA

CITY           SKY/WX    TMP DP  RH WIND       PRES   REMARKS
GRAND CANYON   SUNNY     51  33  50 NW12G25   30.00S
PRESCOTT       SUNNY     63  30  28 N21       29.95F
FLAGSTAFF      NOT AVBL
PAYSON         SUNNY     59  37  44 W9G18     29.95S
PAGE           CLOUDY    63  33  32 NW10G23   29.85S
$$

AZZ009>014-017-222300-
NORTHEAST ARIZONA

CITY           SKY/WX    TMP DP  RH WIND       PRES   REMARKS
WINSLOW        NOT AVBL
SAINT JOHNS    SUNNY     58  29  33 W22G33    29.87F
WINDOW ROCK    PTSUNNY   52  32  46 W15G26    29.85F
$$

AZZ023-222300-
GREATER PHOENIX AREA

CITY           SKY/WX    TMP DP  RH WIND       PRES   REMARKS
PHOENIX        SUNNY     65  42  43 VRB5      29.89F
GLENDALE       SUNNY     63  43  48 SE5       29.92F
LUKE AFB       SUNNY     63  44  49 S2        29.89F
DEER VALLEY    SUNNY     61  40  45 SW5       29.89F
SCOTTSDALE     SUNNY     62  41  46 S3        29.91F
MESA-FALCON    SUNNY     61  39  44 S7        29.90F
MESA-GATEWAY   MOSUNNY   61  41  48 CALM      29.92F
CHANDLER       SUNNY     63  43  48 CALM      29.91
$$

AZZ027-028-222300-
SOUTHWEST MARICOPA COUNTY AND PINAL COUNTY

CITY           SKY/WX    TMP DP  RH WIND       PRES   REMARKS
CASA GRANDE    SUNNY     63  41  45 MISG      29.90F
GILA BEND      CLEAR     66  41  40 W6        29.92F
$$

AZZ503-504-507>509-222300-
SOUTHEAST ARIZONA

CITY           SKY/WX    TMP DP  RH WIND       PRES   REMARKS
TUCSON         SUNNY     64  39  39 VRB7      29.93F
DAVIS-MONTHAN  SUNNY     63  39  41 W6        29.91F
RYAN FIELD       N/A     66  45  45 W5        29.93F
NOGALES        SUNNY     66  35  31 NW10      29.94F
SIERRA VISTA   SUNNY     63  34  34 W21G29    29.93F
SAFFORD        SUNNY     64  37  36 NW16G25   29.84S
$$

AZZ020-021-025-026-031-222300-
SOUTHWEST ARIZONA

CITY           SKY/WX    TMP DP  RH WIND       PRES   REMARKS
YUMA           NOT AVBL
$$

CAZ031-033-041-043-047-048-061-222300-
SOUTHERN CALIFORNIA

CITY           SKY/WX    TMP DP  RH WIND       PRES   REMARKS
DOWNTOWN L.A.  SUNNY     72  54  53 VRB3      29.95F
L.A. AIRPORT   FOG       63  59  88 W10       29.97F VSB 3/4
SAN DIEGO      SUNNY     71  52  50 NW10      29.96F
BURBANK        SUNNY     76  49  38 SE3       29.95F
ONTARIO        SUNNY     75  47  36 VRB3      29.96F
RIVERSIDE      SUNNY     74  48  39 CALM      29.96F
PALM SPRINGS   SUNNY     75  46  35 VRB3      29.93F
EL CENTRO NAS  SUNNY     75  47  36 CALM      29.91F
IMPERIAL       SUNNY     75  49  39 CALM      29.91F
BLYTHE         SUNNY     70  47  43 S7        29.91F
$$

NVZ020-UTZ003-222300-
SOUTHERN NEVADA-UTAH

CITY           SKY/WX    TMP DP  RH WIND       PRES   REMARKS
LAS VEGAS      NOT AVBL
SALT LAKE CITY PTSUNNY   45  31  58 NW25      29.98S
$$

NMZ009-TXZ055-222300-
NEW MEXICO-WEST TEXAS

CITY           SKY/WX    TMP DP  RH WIND       PRES   REMARKS
ALBUQUERQUE    CLOUDY    57  30  35 W41G55    29.71R
EL PASO        MOSUNNY   66  33  29 W15G25    29.74F
$$


........................KEY........................
SKY/WX - SKY CONDITION/WEATHER
TMP    - TEMPERATURE IN FAHRENHEIT
DP     - DEW POINT IN FAHRENHEIT
RH     - RELATIVE HUMIDITY IN PERCENT
WIND   - DIRECTION AND SPEED IN MILES PER HOUR (MPH)
VRB    - VARIABLE WIND DIRECTION
PRES   - MEAN SEA LEVEL PRESSURE IN INCHES OF MERCURY
         F - FALLING PRESSURE   R - RISING PRESSURE
         S - STEADY PRESSURE
VSB    - VISIBILITY IN MILES
HX     - HEAT INDEX IN FAHRENHEIT
WCI    - WIND CHILL INDEX IN FAHRENHEIT
TC     - TEMPERATURE IN CELSIUS WHICH IS ALSO KNOWN AS
         TEMPERATURE IN CENTIGRADE
AFB    - AIR FORCE BASE
         LUKE AFB IS LUKE AIR FORCE BASE
         DAVIS-MONTHAN IS DAVIS-MONTHAN AIR FORCE BASE
NAS    - NAVAL AIR STATION
         EL CENTRO NAS IS EL CENTRO NAVAL AIR STATION
N/A    - NOT AVAILABLE



USA.gov is the U.S. government's official web portal to all federal, state and local government web resources and services.